カタログに戻る

STARLINK-38064

運用中通信SSO
NORAD 69988·PAYLOAD·🇺🇸 United States

打ち上げ Jul 11, 2026 から Vandenberg Space Force Base

Loading…

次のパス (今後24時間)

TLE

最新Source: CelesTrak SupGP

元期: Sep 15, 2026, 04:09 UTC

1 69988C 26159P   26258.17340278 -.02722700  00000+0 -41392-1 0  2587
2 69988  97.2851  99.9462 0001706  94.1078 239.2682 15.55970731    12

AllMySatでSTARLINK-38064をリアルタイム追跡

Download on the App Store